Portada
METAR-TAF:

METAR-TAF

Aeroports :

Yezd, Iran

latitud: 31-54N, longitud: 054-24E, altitud: 1238 m

Observació

L'informe es va fer fa 1 hora i 8 minuts, a les 00:00 UTC
Vent 10 kt del Est/Sud-Est
Temperatura 11°C
Humitat 76%
Pressió 1008 hPa
Visibilitat: 3000 m
Escasses núvols a una alçada de 3000 ft
Núvols disperses a una alçada de 7000 ft
calitja

METAR: OIYY 300000Z 11010KT 3000 HZ FEW030 SCT070 11/07 Q1008

Hora: 05:38 (01:08 UTC)


TAF: manca

Observacions i pronòstics meteorològics de més de 4000 aeroports (METAR i TAF).

Les estacions disponibles són els punts grocs i vermells al mapa.

Posi el ratolí al punt desitjat per veure el nom de l'estació.

Feu clic per veure les observacions i els pronòstics meteorològics.

Per canviar el mapa: feu clic els botons verds amb una creu de color negre per apropar; al botó verd amb un guió per allunyar la imatge; o en les fletxes verdes per a mapes adjacents.


METAR-TAF: